Location: Bonchamp
(47.0296°N, 0.8351°E)
Time: 00:08:57
(UTC+00:00)

NOSS 3-1 (A) - Pass Details

Date: 06 September 2025
Orbit: 621 x 1586 km, 63.4° (Epoch: 02 December)

Event Time Altitude Azimuth Distance (km) Brightness Sun altitude
Rises 19:41:54 0° 205° (SSW) 2,924 6.0 -13.1°
Reaches altitude 10° 19:44:03 10° 201° (SSW) 2,067 5.2 -13.5°
Maximum altitude 19:48:34 57° 122° (ESE) 856 2.9 -14.2°
Drops below altitude 10° 19:54:00 10° 45° (NE) 2,480 5.5 -15.0°
Sets 19:56:48 0° 42° (NE) 3,570 6.3 -15.4°
